EW1090 Weather Reports


Display with metric or nautical units.
time (UTC)temp
F
wind
direction
speed
MPH
gust
MPH
rain 1hr
in
rain 24hr
in
rain mn
in
humidity
%
barometer
mb
20260506232316 83 150 2.0 11.0 0.00 0.00 0.00 72 1010.3
20260506231812 83 167 3.0 10.0 0.00 0.00 0.00 72 1010.2
20260506231308 84 202 3.0 10.0 0.00 0.00 0.00 71 1010.3
20260506230825 84 171 2.0 6.0 0.00 0.00 0.00 71 1010.2
20260506230321 84 173 1.0 12.0 0.00 0.00 0.00 71 1010.1
20260506225816 84 235 3.0 12.0 0.00 0.00 0.00 71 1010.2
20260506225312 84 285 1.0 9.0 0.00 0.00 0.00 71 1010.3
20260506224809 84 196 4.0 10.0 0.00 0.00 0.00 70 1010.2
20260506224325 84 252 1.0 10.0 0.00 0.00 0.00 70 1010.3
20260506223820 84 189 4.0 10.0 0.00 0.00 0.00 69 1010.3
20260506223316 84 263 2.0 13.0 0.00 0.00 0.00 69 1010.4
20260506222810 84 184 5.0 13.0 0.00 0.00 0.00 68 1010.5
20260506222306 85 209 3.0 14.0 0.00 0.00 0.00 68 1010.5
20260506221822 85 220 3.0 15.0 0.00 0.00 0.00 67 1010.5
20260506221319 85 114 2.0 15.0 0.00 0.00 0.00 67 1010.6
20260506220816 86 200 3.0 13.0 0.00 0.00 0.00 66 1010.6
20260506220313 86 355 3.0 13.0 0.00 0.00 0.00 66 1010.6
20260506215809 87 236 4.0 11.0 0.00 0.00 0.00 65 1010.6
20260506215317 87 281 1.0 10.0 0.00 0.00 0.00 65 1010.7
20260506214814 87 153 2.0 10.0 0.00 0.00 0.00 66 1010.7
20260506214311 87 199 1.0 12.0 0.00 0.00 0.00 65 1010.6
20260506213806 87 149 1.0 12.0 0.00 0.00 0.00 64 1010.7
20260506213315 87 94 2.0 11.0 0.00 0.00 0.00 65 1010.7
20260506212811 87 214 2.0 11.0 0.00 0.00 0.00 65 1010.8
20260506212307 87 195 3.0 10.0 0.00 0.00 0.00 65 1010.8
20260506211845 86 269 2.0 13.0 0.00 0.00 0.00 65 1010.8
20260506211321 87 237 4.0 13.0 0.00 0.00 0.00 64 1010.9
20260506210817 88 223 4.0 11.0 0.00 0.00 0.00 63 1010.9
20260506210312 88 213 2.0 8.0 0.00 0.00 0.00 64 1010.9
20260506205808 87 193 1.0 7.0 0.00 0.00 0.00 66 1010.9
20260506205306 87 201 2.0 17.0 0.00 0.00 0.00 66 1010.9
20260506204822 87 171 5.0 17.0 0.00 0.00 0.00 66 1010.9
20260506204320 88 252 4.0 15.0 0.00 0.00 0.00 64 1011.0
20260506203815 89 169 4.0 10.0 0.00 0.00 0.00 63 1011.1
20260506203311 89 168 1.0 8.0 0.00 0.00 0.00 64 1011.2
20260506202808 89 206 2.0 10.0 0.00 0.00 0.00 64 1011.2
20260506202323 89 160 1.0 10.0 0.00 0.00 0.00 63 1011.2
20260506201819 89 56 0.0 10.0 0.00 0.00 0.00 63 1011.4
20260506201314 88 180 2.0 7.0 0.00 0.00 0.00 65 1011.4
20260506200832 88 190 1.0 7.0 0.00 0.00 0.00 64 1011.6
20260506200346 88 157 1.0 8.0 0.00 0.00 0.00 65 1011.7
20260506195841 87 203 2.0 11.0 0.00 0.00 0.00 65 1011.8
20260506195316 87 92 4.0 11.0 0.00 0.00 0.00 66 1011.9
20260506194832 87 255 3.0 7.0 0.00 0.00 0.00 65 1012.0
20260506194307 87 146 3.0 12.0 0.00 0.00 0.00 65 1012.1
20260506193324 87 101 3.0 9.0 0.00 0.00 0.00 65 1012.1
20260506192820 87 288 2.0 8.0 0.00 0.00 0.00 65 1012.3
20260506192316 87 222 2.0 8.0 0.00 0.00 0.00 67 1012.4
20260506191812 86 214 0.0 9.0 0.00 0.00 0.00 67 1012.5
20260506191307 86 201 1.0 9.0 0.00 0.00 0.00 67 1012.6
20260506190824 86 204 1.0 8.0 0.00 0.00 0.00 67 1012.6
20260506190320 86 236 3.0 9.0 0.00 0.00 0.00 67 1012.7
20260506185816 86 218 3.0 11.0 0.00 0.00 0.00 68 1012.8
20260506185313 85 193 2.0 11.0 0.00 0.00 0.00 68 1012.8
20260506184808 85 210 1.0 10.0 0.00 0.00 0.00 70 1012.8
20260506184324 85 182 2.0 10.0 0.00 0.00 0.00 69 1013.0
20260506183820 85 200 1.0 7.0 0.00 0.00 0.00 69 1013.0
20260506183316 85 155 1.0 7.0 0.00 0.00 0.00 69 1013.1
20260506182812 85 182 2.0 7.0 0.00 0.00 0.00 69 1013.2
20260506182307 85 219 1.0 16.0 0.00 0.00 0.00 69 1013.2
20260506181823 85 144 2.0 16.0 0.00 0.00 0.00 68 1013.1
20260506181320 86 194 1.0 10.0 0.00 0.00 0.00 69 1013.1
20260506180816 86 173 1.0 10.0 0.00 0.00 0.00 69 1013.0
20260506180312 85 164 1.0 9.0 0.00 0.00 0.00 70 1013.0
20260506175807 85 216 2.0 9.0 0.00 0.00 0.00 71 1013.0
20260506175323 84 196 1.0 10.0 0.00 0.00 0.00 71 1013.1
20260506174818 84 202 1.0 6.0 0.00 0.00 0.00 73 1013.3
20260506174312 83 200 2.0 9.0 0.00 0.00 0.00 73 1013.4
20260506173808 83 164 2.0 9.0 0.00 0.00 0.00 74 1013.4
20260506173305 83 224 2.0 9.0 0.00 0.00 0.00 77 1013.4
20260506172817 83 199 2.0 9.0 0.00 0.00 0.00 78 1013.5
20260506172325 82 163 2.0 4.0 0.00 0.00 0.00 79 1013.7
20260506171821 82 248 0.0 8.0 0.00 0.00 0.00 81 1013.7
20260506171318 82 192 3.0 8.0 0.00 0.00 0.00 79 1013.7
20260506170813 82 30 2.0 7.0 0.00 0.00 0.00 78 1013.8
20260506170309 82 173 2.0 7.0 0.00 0.00 0.00 76 1013.7
20260506165825 82 197 2.0 7.0 0.00 0.00 0.00 75 1013.7
20260506165341 82 225 0.0 7.0 0.00 0.00 0.00 76 1013.7
20260506164816 82 196 1.0 7.0 0.00 0.00 0.00 76 1013.6
20260506164313 82 179 1.0 5.0 0.00 0.00 0.00 75 1013.5
20260506163809 83 193 0.0 4.0 0.00 0.00 0.00 75 1013.5
20260506163325 82 233 0.0 8.0 0.00 0.00 0.00 75 1013.5
20260506162820 83 115 1.0 8.0 0.00 0.00 0.00 75 1013.4
20260506162315 83 139 2.0 12.0 0.00 0.00 0.00 76 1013.3
20260506161831 82 215 3.0 12.0 0.00 0.00 0.00 75 1013.1
20260506161305 82 230 3.0 11.0 0.00 0.00 0.00 75 1013.2
20260506160823 82 172 1.0 7.0 0.00 0.00 0.00 75 1013.2
20260506160318 82 157 0.0 15.0 0.00 0.00 0.00 75 1013.2
20260506155813 82 127 4.0 9.0 0.00 0.00 0.00 75 1013.2
20260506155310 82 71 0.0 5.0 0.00 0.00 0.00 76 1013.2
20260506154806 82 167 1.0 7.0 0.00 0.00 0.00 77 1013.2
20260506154323 82 171 1.0 8.0 0.00 0.00 0.00 78 1013.2
20260506153819 81 78 2.0 8.0 0.00 0.00 0.00 78 1013.1
20260506153314 81 69 2.0 8.0 0.00 0.00 0.00 78 1013.1
20260506152317 81 155 3.0 14.0 0.00 0.00 0.00 78 1012.9
20260506151813 81 200 2.0 11.0 0.00 0.00 0.00 79 1012.9
20260506151310 81 194 4.0 12.0 0.00 0.00 0.00 78 1013.0
20260506150825 81 225 3.0 7.0 0.00 0.00 0.00 79 1012.9
20260506145823 80 120 3.0 13.0 0.00 0.00 0.00 80 1013.0
20260506145316 80 113 4.0 13.0 0.00 0.00 0.00 80 1012.9
20260506144811 80 236 4.0 9.0 0.00 0.00 0.00 80 1012.9
20260506144308 80 221 2.0 6.0 0.00 0.00 0.00 81 1012.9
20260506143824 80 205 2.0 9.0 0.00 0.00 0.00 82 1013.0
20260506143339 79 184 4.0 11.0 0.00 0.00 0.00 81 1012.9
20260506142816 79 208 4.0 11.0 0.00 0.00 0.00 82 1012.8
20260506142311 79 218 3.0 8.0 0.00 0.00 0.00 82 1012.6
20260506141807 79 257 3.0 9.0 0.00 0.00 0.00 83 1012.6
20260506141324 79 173 4.0 9.0 0.00 0.00 0.00 83 1012.5
20260506140820 79 192 3.0 8.0 0.00 0.00 0.00 84 1012.5
20260506140316 78 125 2.0 8.0 0.00 0.00 0.00 84 1012.5
20260506135811 78 218 1.0 6.0 0.00 0.00 0.00 85 1012.4
20260506135308 78 88 1.0 4.0 0.00 0.00 0.00 86 1012.5
20260506134846 78 194 0.0 2.0 0.00 0.00 0.00 86 1012.6
20260506134342 77 122 1.0 3.0 0.00 0.00 0.00 87 1012.6
20260506133817 77 109 1.0 3.0 0.00 0.00 0.00 87 1012.6
20260506133312 77 116 1.0 5.0 0.00 0.00 0.00 87 1012.5
20260506132809 77 247 1.0 5.0 0.00 0.00 0.00 88 1012.6
20260506132324 76 196 1.0 4.0 0.00 0.00 0.00 88 1012.6
20260506131834 76 242 0.0 4.0 0.00 0.00 0.00 88 1012.5
20260506131310 76 165 0.0 3.0 0.00 0.00 0.00 88 1012.4
20260506130825 76 160 0.0 3.0 0.00 0.00 0.00 89 1012.4
20260506130342 76 159 0.0 3.0 0.00 0.00 0.00 89 1012.5
20260506125817 76 140 0.0 4.0 0.00 0.00 0.00 89 1012.6
20260506125313 76 214 0.0 3.0 0.00 0.00 0.00 89 1012.5
20260506124809 75 211 1.0 3.0 0.00 0.00 0.00 89 1012.5
20260506124306 75 170 0.0 3.0 0.00 0.00 0.00 89 1012.5
20260506123823 75 157 0.0 3.0 0.00 0.00 0.00 89 1012.3
20260506123320 75 152 0.0 3.0 0.00 0.00 0.00 89 1012.2
20260506122809 75 182 0.0 2.0 0.00 0.00 0.00 90 1012.2
20260506122306 75 153 0.0 1.0 0.00 0.00 0.00 90 1012.2
20260506121823 75 158 0.0 2.0 0.00 0.00 0.00 89 1012.1
20260506121319 75 121 0.0 2.0 0.00 0.00 0.00 90 1012.1
20260506120815 75 135 0.0 2.0 0.00 0.00 0.00 90 1012.0
20260506120310 75 131 0.0 5.0 0.00 0.00 0.00 89 1011.9
20260506115806 75 140 0.0 5.0 0.00 0.00 0.00 89 1011.9
20260506115323 75 98 0.0 1.0 0.00 0.00 0.00 89 1011.8
20260506114839 75 94 0.0 1.0 0.00 0.00 0.00 89 1011.8
20260506114315 75 173 0.0 0.0 0.00 0.00 0.00 89 1011.8
20260506113811 75 163 0.0 3.0 0.00 0.00 0.00 89 1011.8
20260506113308 75 123 0.0 4.0 0.00 0.00 0.00 89 1011.7
20260506112823 75 101 0.0 5.0 0.00 0.00 0.00 88 1011.7
20260506112340 75 213 1.0 6.0 0.00 0.00 0.00 88 1011.7
20260506111816 75 236 0.0 3.0 0.00 0.00 0.00 88 1011.6
20260506111313 75 155 0.0 3.0 0.00 0.00 0.00 88 1011.6
20260506110808 75 209 0.0 5.0 0.00 0.00 0.00 87 1011.6
20260506110324 75 227 2.0 5.0 0.00 0.00 0.00 87 1011.6
20260506105821 75 188 0.0 6.0 0.00 0.00 0.00 86 1011.5
20260506105333 75 188 0.0 6.0 0.00 0.00 0.00 86 1011.5
20260506104808 75 187 1.0 7.0 0.00 0.00 0.00 85 1011.5
20260506104323 75 172 1.0 7.0 0.00 0.00 0.00 85 1011.3
20260506103819 75 227 2.0 9.0 0.00 0.00 0.00 84 1011.2
20260506103315 75 191 3.0 9.0 0.00 0.00 0.00 84 1011.3
20260506102812 75 317 2.0 7.0 0.00 0.00 0.00 83 1011.3
20260506102308 75 176 2.0 7.0 0.00 0.00 0.00 83 1011.2
20260506101823 75 127 2.0 8.0 0.00 0.00 0.00 83 1011.2
20260506101309 75 259 1.0 8.0 0.00 0.00 0.00 83 1011.2
20260506100809 75 198 2.0 8.0 0.00 0.00 0.00 83 1011.1
20260506100320 75 198 2.0 4.0 0.00 0.00 0.00 83 1011.1
20260506095809 75 212 2.0 4.0 0.00 0.00 0.00 83 1011.1
20260506095321 75 119 2.0 4.0 0.00 0.00 0.00 83 1011.1
20260506094850 75 238 2.0 6.0 0.00 0.00 0.00 83 1011.1
20260506094316 75 219 2.0 7.0 0.00 0.00 0.00 83 1011.2
20260506093825 75 217 1.0 7.0 0.00 0.00 0.00 83 1011.1
20260506093313 75 88 1.0 8.0 0.00 0.00 0.00 83 1011.0
20260506092842 75 192 1.0 5.0 0.00 0.00 0.00 83 1011.1
20260506092330 75 225 2.0 5.0 0.00 0.00 0.00 83 1011.1
20260506091838 75 194 1.0 4.0 0.00 0.00 0.00 83 1011.1
20260506091326 75 223 2.0 4.0 0.00 0.00 0.00 83 1011.1
20260506090813 75 221 2.0 4.0 0.00 0.00 0.00 83 1011.2
20260506090342 75 192 1.0 4.0 0.00 0.00 0.00 83 1011.3
20260506085810 75 139 1.0 4.0 0.00 0.00 0.00 82 1011.2
20260506085318 75 226 1.0 4.0 0.00 0.00 0.00 82 1011.3
20260506084811 75 226 0.0 4.0 0.00 0.00 0.00 82 1011.4
20260506083819 74 267 0.0 2.0 0.00 0.00 0.00 82 1011.3
20260506083307 74 74 0.0 2.0 0.00 0.00 0.00 82 1011.2
20260506082816 74 59 0.0 2.0 0.00 0.00 0.00 82 1011.2
20260506082325 74 59 1.0 2.0 0.00 0.00 0.00 82 1011.2
20260506081814 74 50 1.0 3.0 0.00 0.00 0.00 82 1011.1
20260506081324 74 50 1.0 3.0 0.00 0.00 0.00 82 1011.1
20260506080812 74 182 1.0 5.0 0.00 0.00 0.00 82 1011.0
20260506080326 74 225 1.0 5.0 0.00 0.00 0.00 82 1011.0
20260506073316 74 225 1.0 4.0 0.00 0.00 0.00 83 1011.2
20260506072825 74 144 0.0 4.0 0.00 0.00 0.00 83 1011.2
20260506072314 74 159 0.0 3.0 0.00 0.00 0.00 83 1011.3
20260506071822 74 194 0.0 3.0 0.00 0.00 0.00 83 1011.2
20260506071314 74 182 0.0 3.0 0.00 0.00 0.00 83 1011.2
20260506070823 74 302 1.0 5.0 0.00 0.00 0.00 83 1011.2
20260506070311 74 250 1.0 5.0 0.00 0.00 0.00 83 1011.3
20260506062312 74 153 1.0 7.0 0.00 0.00 0.00 83 1011.6
20260506061806 74 169 2.0 6.0 0.00 0.00 0.00 83 1011.6
20260506061324 74 267 1.0 5.0 0.00 0.00 0.00 83 1011.6
20260506060842 74 113 0.0 5.0 0.00 0.00 0.00 82 1011.5
20260506060314 74 173 1.0 6.0 0.00 0.00 0.00 82 1011.5
20260506051316 74 142 1.0 5.0 0.00 0.00 0.00 82 1011.9
20260506050813 74 77 2.0 6.0 0.00 0.00 0.00 82 1011.8
20260506050309 74 80 1.0 6.0 0.00 0.00 0.00 82 1011.7
20260506044813 74 180 1.0 8.0 0.00 0.00 0.00 82 1011.8
20260506044309 74 85 2.0 8.0 0.00 0.00 0.00 82 1011.9
20260506043821 74 140 1.0 6.0 0.00 0.00 0.00 81 1011.9
20260506043317 74 91 2.0 8.0 0.00 0.00 0.00 81 1011.9
20260506042814 74 157 3.0 10.0 0.00 0.00 0.00 82 1011.9
20260506042311 74 109 2.0 10.0 0.00 0.00 0.00 81 1012.0
20260506041827 74 213 2.0 8.0 0.00 0.00 0.00 81 1012.0
20260506041323 74 130 3.0 8.0 0.00 0.00 0.00 81 1012.0
20260506040820 74 155 1.0 7.0 0.00 0.00 0.00 81 1012.0
20260506040335 74 102 1.0 8.0 0.00 0.00 0.00 81 1012.0
20260506035810 74 166 2.0 8.0 0.00 0.00 0.00 81 1011.9
20260506035326 74 155 2.0 8.0 0.00 0.00 0.00 80 1012.0
20260506034842 74 146 2.0 7.0 0.00 0.00 0.00 80 1012.1
20260506034318 75 167 2.0 8.0 0.00 0.00 0.00 80 1012.1
20260506033814 75 239 3.0 8.0 0.00 0.00 0.00 80 1011.9
20260506033331 75 145 1.0 8.0 0.00 0.00 0.00 80 1011.9
20260506032847 75 172 2.0 8.0 0.00 0.00 0.00 80 1012.0
20260506032323 75 151 1.0 4.0 0.00 0.00 0.00 79 1012.0
20260506031839 75 153 1.0 9.0 0.00 0.00 0.00 79 1012.0
20260506031315 75 156 2.0 9.0 0.00 0.00 0.00 79 1012.0
20260506030831 75 155 2.0 9.0 0.00 0.00 0.00 78 1012.0
20260506030348 75 178 2.0 9.0 0.00 0.00 0.00 78 1012.0
20260506025822 75 136 3.0 7.0 0.00 0.00 0.00 78 1012.0
20260506025318 75 307 1.0 5.0 0.00 0.00 0.00 78 1012.0
20260506024813 75 167 1.0 11.0 0.00 0.00 0.00 78 1012.0
20260506024309 75 109 2.0 11.0 0.00 0.00 0.00 77 1011.9
20260506023825 75 136 1.0 5.0 0.00 0.00 0.00 77 1011.9
20260506023321 76 46 1.0 5.0 0.00 0.00 0.00 77 1011.8
20260506022818 76 164 1.0 5.0 0.00 0.00 0.00 76 1011.8
20260506022314 76 175 1.0 4.0 0.00 0.00 0.00 76 1011.8
20260506021812 76 180 1.0 4.0 0.00 0.00 0.00 75 1011.7
20260506021307 76 143 2.0 6.0 0.00 0.00 0.00 75 1011.6
20260506020823 76 139 1.0 6.0 0.00 0.00 0.00 75 1011.6
20260506020313 76 191 2.0 4.0 0.00 0.00 0.00 75 1011.6
20260506015825 76 183 1.0 6.0 0.00 0.00 0.00 75 1011.5
20260506015341 76 225 2.0 6.0 0.00 0.00 0.00 75 1011.6
20260506014816 76 196 1.0 4.0 0.00 0.00 0.00 75 1011.5
20260506014314 76 180 1.0 4.0 0.00 0.00 0.00 75 1011.3
20260506013830 76 192 1.0 4.0 0.00 0.00 0.00 75 1011.3
20260506013345 76 208 0.0 4.0 0.00 0.00 0.00 75 1011.4
20260506012840 76 188 1.0 5.0 0.00 0.00 0.00 74 1011.4
20260506012315 77 126 1.0 5.0 0.00 0.00 0.00 74 1011.4
20260506011832 77 178 1.0 7.0 0.00 0.00 0.00 73 1011.4
20260506011328 77 180 1.0 5.0 0.00 0.00 0.00 73 1011.3
20260506010843 77 184 1.0 5.0 0.00 0.00 0.00 73 1011.3
20260506010317 77 223 1.0 5.0 0.00 0.00 0.00 73 1011.4
20260506005813 77 313 2.0 7.0 0.00 0.00 0.00 72 1011.3
20260506005330 77 200 2.0 7.0 0.00 0.00 0.00 73 1011.5
20260506004846 77 166 2.0 6.0 0.00 0.00 0.00 72 1011.6
20260506004341 77 126 2.0 7.0 0.00 0.00 0.00 72 1011.4
20260506003815 77 252 3.0 7.0 0.00 0.00 0.00 71 1011.3
20260506003312 78 227 1.0 7.0 0.00 0.00 0.00 71 1011.4
20260506002809 78 166 3.0 7.0 0.00 0.00 0.00 71 1011.4
20260506002326 78 229 2.0 6.0 0.00 0.00 0.00 70 1011.4
20260506001842 78 178 2.0 6.0 0.00 0.00 0.00 70 1011.3
20260506001317 78 194 1.0 7.0 0.00 0.00 0.00 69 1011.3
20260506000813 78 225 0.0 7.0 0.00 0.00 0.00 69 1011.3
20260506000309 79 144 1.0 6.0 0.00 0.00 0.00 69 1011.3
20260505235821 79 250 1.0 6.0 0.00 0.00 0.00 68 1011.3
20260505235317 79 175 3.0 6.0 0.00 0.00 0.00 68 1011.3
20260505234814 79 134 2.0 7.0 0.00 0.00 0.00 67 1011.3
20260505234310 79 227 1.0 7.0 0.00 0.00 0.00 67 1011.3
20260505233824 80 245 2.0 7.0 0.00 0.00 0.00 66 1011.3
20260505233320 80 208 0.0 4.0 0.00 0.00 0.00 67 1011.3
20260505232815 80 107 1.0 4.0 0.00 0.00 0.00 66 1011.3